Location: Phoenix
(33.4480°N, 112.0730°W)
Time: 22:17:07
(UTC-07:00)

Daily predictions for brighter satellites

Satellite Brightness Start Highest point End
(mag) Time Altitude Azimuth Time Altitude Azimuth Time Altitude Azimuth
Cosmos 1743 4.2 19:53:50 10° NNE 19:56:47 21° ENE 19:59:43 10° SE
PSLV R/B 4.5 20:00:24 10° SSW 20:03:20 25° SE 20:06:17 10° E
CZ-4 DEB 2.8 20:03:35 10° SSE 20:06:45 61° ENE 20:09:57 10° N
CZ-2C R/B 2.0 20:06:02 11° SE 20:07:42 21° ENE 20:09:34 10° NNE
Tiangong 1 3.3 20:06:10 10° W 20:08:23 18° SW 20:10:34 10° S
Cosmos 1606 Rocket 4.3 20:04:21 10° NNE 20:08:27 35° E 20:12:30 10° SSE
Meteor 1-19 Rocket 4.3 20:06:34 10° S 20:12:05 56° E 20:17:32 10° NNE
H-2A R/B 3.0 20:08:29 10° SE 20:12:07 29° ENE 20:15:51 10° N
Milstar 3 Cent rocket 3.0 20:06:51 10° W 20:15:19 51° SSW 20:19:51 13° ESE
Delta 168 4.4 20:14:15 10° SSW 20:16:56 18° SSE 20:19:14 13° SE
Meteor 2-4 Rocket 4.2 20:11:55 10° SSE 20:17:23 45° E 20:22:58 10° NNE
Resurs 01 Rocket 4.2 20:14:15 10° SW 20:17:34 20° W 20:20:53 10° NW
SPOT 5 4.3 20:17:32 12° ESE 20:20:08 18° ENE 20:23:08 10° NNE
Cosmos 2333 Rocket 3.4 20:16:03 10° SW 20:21:27 46° WNW 20:26:51 10° N
Cosmos 1975 4.2 20:20:33 10° NNW 20:24:18 39° W 20:28:02 10° SSW
H-2A R/B 2.9 20:21:01 10° S 20:24:55 79° WSW 20:28:53 10° NNW
USA 186 2.2 20:23:42 10° S 20:26:40 55° W 20:29:29 10° NNW
Cosmos 2297 4.2 20:24:00 10° N 20:29:27 44° ENE 20:33:35 17° SE
ATLAS CENTAUR R/B 3.2 20:26:50 10° SW 20:31:29 44° WNW 20:36:19 10° NNE
Cosmos 2098 Rocket 3.3 20:29:49 10° NNW 20:33:10 57° W 20:37:17 10° S
SeaSat 1 3.4 20:32:57 16° ESE 20:36:06 32° ENE 20:40:28 10° N
Cosmos 1844 Rocket 4.1 20:31:59 10° NW 20:37:04 35° WSW 20:42:06 10° SSW
BREEZE-M DEB (TANK) 4.1 20:33:30 10° NW 20:37:57 78° SW 20:51:07 17° SE
Hubble Space Telescope 2.8 20:36:17 10° WSW 20:38:52 16° SSW 20:40:39 13° S
Cosmos 1025 Rocket 3.9 20:36:14 10° SSW 20:40:31 53° W 20:44:50 10° N
Cosmos 1892 Rocket 3.6 20:36:22 10° S 20:40:47 82° W 20:45:15 10° N
CZ-4B R/B 4.4 20:37:37 10° NE 20:42:01 29° E 20:44:18 21° SE
Cosmos 2251 Rocket 4.1 20:37:24 10° SSW 20:42:37 61° WNW 20:47:54 10° N
Cosmos 2228 3.8 20:38:49 10° NNE 20:42:53 35° E 20:44:52 24° SE
FENGYUN 3A 4.3 20:39:22 10° S 20:44:36 54° W 20:49:52 10° NNW
OTV 4 1.4 20:43:29 10° W 20:46:14 35° SSW 20:47:03 28° S
ALOS 3.6 20:47:01 10° SSW 20:51:20 38° W 20:55:41 10° NNW
Chunghua 1 4.5 20:47:54 10° W 20:51:47 80° SSW 20:53:29 32° ESE
IUS-17 SRM-1 4.0 20:50:15 10° WSW 20:53:26 49° S 21:00:44 17° ESE
Atlas Centaur 2 3.3 20:49:00 10° SW 20:56:19 47° SSE 21:03:19 14° E
Tsikada Rocket 4.3 20:51:53 18° SSE 20:56:30 48° E 21:02:37 10° NNE
Cosmos 1939 Rocket 2.9 20:55:28 26° SSE 20:57:45 77° ENE 21:01:55 10° N
COSMOS 2455 3.4 20:56:15 20° SSE 20:59:34 35° ESE 21:04:57 10° NE
Envisat 3.0 20:57:00 25° SSE 20:59:52 63° ENE 21:04:53 10° N
ERS-1 Rocket 3.4 20:56:52 13° S 21:01:19 61° W 21:06:17 10° NNW
Nimbus 7 Rocket 4.4 20:55:57 10° NNE 21:01:56 84° WNW 21:07:50 10° SSW
PSLV R/B 3.3 21:02:46 49° E 21:03:00 51° ENE 21:06:00 10° N
Cosmos 1513 Rocket 4.5 20:57:44 10° N 21:04:00 66° E 21:07:42 25° SSE
Cosmos 1110 Rocket 4.1 21:00:28 10° NNW 21:05:45 77° WSW 21:08:59 24° S
ATLAS 3B R/B 3.8 21:05:14 24° ESE 21:05:54 24° ESE 21:11:46 10° ENE
Meteor 1-15 Rocket 4.2 21:00:33 10° N 21:06:08 72° E 21:09:17 27° SSE
Cosmos 2285 Rocket 3.9 21:04:33 10° NNW 21:10:54 85° ENE 21:14:32 27° SSE
Cosmos 2278 Rocket 3.5 21:06:36 10° NW 21:11:45 36° WSW 21:16:32 12° SSW
Lacrosse 5 rocket 4.4 21:12:15 10° W 21:14:46 16° NW 21:17:22 10° N
USA 234 3.7 21:15:11 26° ESE 21:18:49 53° NE 21:25:09 10° NNW
Cosmos 2058 Rocket 3.9 21:15:13 10° NNW 21:19:25 48° W 21:22:04 21° SSW
Aureole 2 Rocket 3.7 21:17:17 10° SSW 21:21:15 47° WNW 21:24:54 10° N
Abrixas rocket 3.9 21:18:25 10° NNW 21:21:19 25° NNE 21:21:51 24° NE
Gbstr 26 Del rocket 4.4 21:15:24 10° NW 21:23:00 88° SW 21:27:05 34° SE
Cosmos 1666 2.9 21:19:26 10° N 21:23:19 71° W 21:24:19 46° SSW
Cosmos 1602 Rocket 3.7 21:22:08 27° SSW 21:24:32 76° W 21:29:01 10° N
Cosmos 1464 Rocket 4.3 21:19:30 10° NNW 21:25:33 64° W 21:29:56 20° S
OAO 3 Copernicus 4.3 21:20:42 10° W 21:25:46 81° N 21:27:35 40° E
Cosmos 2369 Rocket 4.0 21:23:08 10° NNE 21:26:42 17° ENE 21:28:01 16° ENE
SL-16 R/B 3.9 21:21:42 10° SW 21:26:44 32° WNW 21:31:47 10° N
ARGOS 3.6 21:29:43 40° ESE 21:30:51 45° ENE 21:36:00 10° N
H-2A R/B 3.5 21:31:07 20° ENE 21:31:19 20° ENE 21:34:51 10° NNE
USA 245 4.4 21:35:19 43° SSE 21:37:25 72° ENE 21:43:05 10° N
Cosmos 1816 Rocket 4.4 21:34:43 31° S 21:37:58 83° E 21:44:20 10° N
Cosmos 1812 Rocket 3.4 21:34:50 10° N 21:39:13 74° E 21:39:24 72° ESE
SPOT 1/Viking Rocket 3.5 21:38:24 55° SE 21:39:26 71° ENE 21:44:34 10° N
Cosmos 1461 3.3 21:36:10 10° NNW 21:40:09 48° NE 21:40:09 48° NE
PSLV R/B 4.0 21:37:19 10° WSW 21:40:49 55° NNW 21:40:53 55° NNW
Cosmos 2034 Rocket 4.3 21:36:35 10° NNW 21:42:52 63° W 21:46:17 28° SSW
Cosmos 1634 Rocket 4.3 21:40:10 10° N 21:46:05 47° E 21:46:54 44° ESE
Timation 1 Rocket 4.2 21:40:54 10° NNW 21:46:57 88° ENE 21:48:25 54° SSE
Cosmos 1515 4.2 21:48:48 56° NNE 21:48:48 56° NNE 21:51:55 10° N
H-2A R/B 4.4 21:45:35 11° SW 21:48:09 18° W 21:51:02 10° NW
MetOp-B 4.5 21:51:23 42° SSW 21:52:59 60° WSW 21:58:17 10° NNW
Cosmos 1066 Rocket 4.1 21:53:02 61° SE 21:53:33 65° E 21:59:14 10° NNE
Cosmos 1190 Rocket 4.5 21:54:39 46° ENE 21:54:39 46° ENE 21:58:57 10° NNE
Cosmos 1603 4.5 21:49:50 10° SW 21:55:16 50° WNW 22:00:43 10° N
CZ-4 R/B 4.1 21:51:24 10° N 21:56:22 72° WNW 21:57:41 48° SW
SPOT 5 4.0 21:56:47 27° SW 21:57:59 32° W 22:01:55 10° NW
Geosat 4.1 21:53:09 10° NNE 21:58:10 73° WNW 22:00:05 38° SW
Cosmos 2279 Rocket 4.4 22:07:02 10° N 22:12:54 44° ENE 22:12:54 44° ENE
SeaSat 1 3.9 22:12:45 25° SW 22:13:33 27° WSW 22:17:42 10° NW
Landsat 7 4.0 22:14:36 64° NNE 22:14:36 64° NNE 22:18:43 10° N
Cosmos 1953 Rocket 4.3 22:15:37 47° N 22:15:37 47° N 22:18:48 10° N
Cosmos 1943 3.2 22:21:12 70° WSW 22:21:45 77° WNW 22:27:27 10° NNE
Terra 2.4 22:30:52 52° N 22:30:52 52° N 22:34:31 10° N
Cosmos 1943 Rocket 3.6 22:38:26 10° N 22:42:31 27° NE 22:42:31 27° NE
Cosmos 407 Rocket 4.0 22:45:24 58° NNW 22:45:24 58° NNW 22:49:53 10° N
COSMOS 2455 4.4 22:40:11 10° WSW 22:45:26 31° WNW 22:50:44 10° N
Atlas Centaur 2 2.9 22:37:44 10° WSW 22:46:00 71° S 22:46:01 71° S
ATLAS 3B R/B 3.3 22:52:19 32° SW 22:56:08 63° WNW 23:03:40 10° NNE
Lacrosse 4 Rocket 3.8 23:03:16 20° N 23:03:16 20° N 23:04:47 10° N
USA 234 4.2 23:02:32 35° WSW 23:02:32 35° WSW 23:07:48 10° WNW
H-2A R/B 3.4 23:11:45 31° WNW 23:11:45 31° WNW 23:15:01 10° NNW
Cosmos 2369 Rocket 3.0 23:05:34 10° NNW 23:09:48 47° WNW 23:09:48 47° WNW
COSMOS 2406 4.2 23:26:15 41° NNE 23:26:15 41° NNE 23:29:53 10° NNE
Nadezhda 4 Rocket 4.3 23:26:47 62° NW 23:26:47 62° NW 23:32:13 10° N
USA 238 DEB 3.9 23:26:50 70° NNE 23:26:50 70° NNE 23:33:00 10° NNE
USA 238 3.9 23:26:59 69° NNE 23:26:59 69° NNE 23:33:06 10° NNE
